Flag for U.S.A. Weather past 2 weeks in Ann Arbor, Michigan, U.S.A.

Now
-9 °F

Clear.


Feels Like: -18 °F
Forecast: -12 / 11 °F
Wind: 3 mph from West

Location: Ann Arbor Municipal Airport

Current Time: Feb 27, 2015 at 2:02:27 AM

Latest Report: Feb 27, 2015 at 12:53 AM


Visibility: 10 mi

Pressure: 30.41 "Hg

Humidity: 87%

Dew point: -12 °F

Location of Ann ArborLocation

Historic Weather in Ann Arbor — Graph

°F

Ann Arbor temperature yesterday

Maximum temperature yesterday: 15 °F (at 2:53 PM)
Minimum temperature yesterday: -6 °F (at 10:53 PM)
Average temperature yesterday: 10 °F

Past Weeks' High & Low Weather Summary

 TemperatureHumidityPressure
High27 °F (Feb 12, 12:53 AM)96% (Feb 21, 9:03 PM)30.71 "Hg (Feb 21, 9:03 PM)
Low-26 °F (Feb 20, 6:53 AM)40% (Feb 19, 11:53 AM)29.62 "Hg (Feb 14, 8:00 AM)
Average8 °F68%30.16 "Hg
* Reported Feb 12 12:53 AM — Feb 27 12:53 AM, Ann Arbor, Weather by CustomWeather, © 2015

Note: Actual official high and low records may vary slightly from our data, if they occured in-between our weather recording intervals... More about our weather records

Advertising

Ann Arbor weather history for previous 24 hours

 ConditionsComfort  
Time TempWeatherWind HumidityBarometerVisibility
12:53 AM
Fri, Feb 27
-9 °FClear.3 mph87%30.41 "Hg10 mi
11:53 PM
Thu, Feb 26
-6 °FClear.No wind87%30.40 "Hg10 mi
10:53 PM-6 °FClear.No wind87%30.39 "Hg10 mi
9:53 PM8 °FClear.5 mph63%30.36 "Hg10 mi
8:53 PM9 °FClear.5 mph61%30.34 "Hg10 mi
7:53 PM10 °FClear.8 mph61%30.32 "Hg10 mi
6:53 PM11 °FOvercast.12 mph59%30.29 "Hg10 mi
5:53 PM13 °FOvercast.9 mph56%30.27 "Hg10 mi
4:53 PM14 °FOvercast.7 mph56%30.24 "Hg10 mi
3:53 PM15 °FOvercast.9 mph58%30.22 "Hg10 mi
2:53 PM15 °FMostly cloudy.12 mph58%30.20 "Hg10 mi
1:53 PM14 °FLight snow. Mostly cloudy.7 mph64%30.19 "Hg6 mi
12:53 PM13 °FLight snow. Mostly cloudy.8 mph64%30.20 "Hg5 mi
11:53 AM12 °FLight snow. Mostly cloudy.8 mph67%30.20 "Hg5 mi
10:53 AM11 °FLight snow. Mostly cloudy.6 mph73%30.20 "Hg2 mi
9:53 AM9 °FLight snow. Mostly cloudy.6 mph76%30.19 "Hg1 mi
9:00 AM9 °FLight snow. Cloudy.8 mph73%30.13 "Hg5 mi
8:53 AM9 °FLight snow. Mostly cloudy.8 mph73%30.18 "Hg2 mi
7:53 AM8 °FLight snow. Mostly cloudy.8 mph72%30.14 "Hg5 mi
6:53 AM8 °FPassing clouds.8 mph72%30.13 "Hg9 mi
5:53 AM9 °FLight snow. Overcast.9 mph70%30.11 "Hg5 mi
4:53 AM10 °FOvercast.8 mph67%30.09 "Hg10 mi
3:53 AM11 °FOvercast.8 mph64%30.08 "Hg10 mi
2:53 AM11 °FMostly cloudy.5 mph61%30.08 "Hg10 mi
Weather by CustomWeather, © 2015

See weather overviewHow to use our weather pages